Back to catalog

STARLINK-4095

AliveCommunicationsVLEO
NORAD 53170·PAYLOAD·🇺🇸 United States

Launched Jul 17, 2022 from Cape Canaveral Space Force Station

Loading…

Next Passes (next 24 hours)

TLE

FreshSource: CelesTrak SupGP

Epoch: Sep 15, 2026, 01:48 UTC

1 53170C 22083AQ  26258.07548611  .00640380  00000+0  30320-1 0  2583
2 53170  53.1597  28.0145 0001324  86.5640 271.4802 15.18506724    11

Track STARLINK-4095 in real time with AllMySat

Download on the App Store